GW2969 Weather Reports


time (UTC)temp
C
wind
direction
speed
KPH
gust
KPH
rain 1hr
cm
rain 24hr
cm
rain mn
cm
humidity
%
barometer
mb
20260506124541 11 0 0.0 0.0 0.00 0.00 0.00 91 1019.5
20260506124026 11 0 0.0 0.0 0.00 0.00 0.00 91 1019.4
20260506123522 11 0 0.0 0.0 0.00 0.00 0.00 91 1019.5
20260506123040 11 0 0.0 0.0 0.00 0.00 0.00 91 1019.5
20260506122525 11 0 0.0 0.0 0.00 0.00 0.00 91 1019.4
20260506122025 11 0 0.0 0.0 0.00 0.00 0.00 91 1019.4
20260506121543 11 0 0.0 0.0 0.00 0.00 0.00 90 1019.4
20260506121025 11 0 0.0 0.0 0.00 0.00 0.00 90 1019.3
20260506120525 11 0 0.0 0.0 0.00 0.00 0.00 90 1019.3
20260506120038 11 0 0.0 0.0 0.00 0.00 0.00 90 1019.3
20260506115526 11 0 0.0 0.0 0.00 0.00 0.00 90 1019.2
20260506115025 11 0 0.0 0.0 0.00 0.00 0.00 89 1019.2
20260506114547 11 0 0.0 0.0 0.00 0.00 0.00 90 1019.3
20260506114025 11 0 0.0 1.6 0.00 0.00 0.00 90 1019.2
20260506113525 11 0 0.0 1.6 0.00 0.00 0.00 90 1019.1
20260506113039 11 0 0.0 1.6 0.00 0.00 0.00 90 1019.0
20260506112528 11 0 0.0 1.6 0.00 0.00 0.00 90 1019.0
20260506112030 11 0 0.0 1.6 0.00 0.00 0.00 90 1019.0
20260506111541 11 0 0.0 1.6 0.00 0.00 0.00 91 1019.0
20260506111022 11 0 0.0 0.0 0.00 0.00 0.00 91 1018.8
20260506110530 11 0 0.0 0.0 0.00 0.00 0.00 91 1018.9
20260506110038 11 0 0.0 0.0 0.00 0.00 0.00 91 1018.8
20260506105526 11 0 0.0 0.0 0.00 0.00 0.00 92 1018.8
20260506105025 11 0 0.0 0.0 0.00 0.00 0.00 92 1018.8
20260506104538 11 0 0.0 0.0 0.00 0.00 0.00 92 1018.7
20260506104025 11 0 0.0 0.0 0.00 0.00 0.00 93 1018.8
20260506103526 11 0 0.0 0.0 0.00 0.00 0.00 93 1018.9
20260506103038 11 0 0.0 0.0 0.00 0.00 0.00 93 1018.8
20260506102527 11 0 0.0 0.0 0.00 0.00 0.00 93 1018.7
20260506102025 11 0 0.0 0.0 0.00 0.00 0.00 93 1018.7
20260506101543 11 0 0.0 0.0 0.00 0.00 0.00 93 1018.8
20260506101026 11 0 0.0 0.0 0.00 0.00 0.00 93 1018.7
20260506100527 11 0 0.0 0.0 0.00 0.00 0.00 93 1018.7
20260506100042 11 0 0.0 0.0 0.00 0.00 0.00 93 1018.7
20260506095525 11 0 0.0 0.0 0.00 0.03 0.00 93 1018.7
20260506095025 11 0 0.0 0.0 0.00 0.03 0.00 92 1018.7
20260506094549 11 0 0.0 0.0 0.00 0.03 0.00 92 1018.7
20260506094022 11 0 0.0 0.0 0.00 0.03 0.00 92 1018.8
20260506093521 11 0 0.0 0.0 0.00 0.03 0.00 92 1018.8
20260506093038 11 0 0.0 0.0 0.00 0.03 0.00 92 1018.8
20260506092525 11 0 0.0 0.0 0.00 0.03 0.00 92 1018.7
20260506092025 11 0 0.0 0.0 0.00 0.03 0.00 92 1018.7
20260506091538 11 0 0.0 0.0 0.00 0.03 0.00 93 1018.7
20260506091025 11 0 0.0 0.0 0.00 0.03 0.00 93 1018.7
20260506090525 11 0 0.0 0.0 0.00 0.03 0.00 93 1018.6
20260506090038 11 0 0.0 0.0 0.00 0.03 0.00 93 1018.7
20260506085525 11 0 0.0 0.0 0.00 0.08 0.00 93 1018.6
20260506085025 11 0 0.0 0.0 0.00 0.08 0.00 93 1018.6
20260506084546 11 0 0.0 0.0 0.00 0.08 0.00 93 1018.7
20260506084026 11 0 0.0 0.0 0.00 0.08 0.00 93 1018.7
20260506083522 11 0 0.0 0.0 0.00 0.08 0.00 93 1018.7
20260506083042 11 0 0.0 0.0 0.00 0.08 0.00 93 1018.8
20260506082521 11 0 0.0 0.0 0.00 0.08 0.00 93 1018.8
20260506082024 11 0 0.0 1.6 0.00 0.08 0.00 93 1018.7
20260506081538 10 0 0.0 1.6 0.00 0.08 0.00 94 1018.8
20260506081023 10 0 0.0 0.0 0.00 0.08 0.00 94 1018.9
20260506080522 10 0 0.0 0.0 0.00 0.08 0.00 94 1018.7
20260506073525 10 0 0.0 0.0 0.00 0.20 0.00 93 1018.5
20260506073043 10 0 0.0 0.0 0.00 0.20 0.00 93 1018.4
20260506072525 10 0 0.0 0.0 0.00 0.20 0.00 93 1018.4
20260506072025 10 0 0.0 0.0 0.00 0.20 0.00 93 1018.4
20260506071542 10 0 0.0 0.0 0.00 0.20 0.00 92 1018.4
20260506071022 10 0 0.0 0.0 0.00 0.20 0.00 92 1018.4
20260506070525 10 0 0.0 0.0 0.00 0.20 0.00 92 1018.4
20260506062025 10 0 0.0 0.0 0.00 0.25 0.20 93 1018.2
20260506061538 10 0 0.0 0.0 0.00 0.25 0.20 93 1018.2
20260506061028 10 0 0.0 0.0 0.00 0.25 0.20 92 1018.1
20260506060526 10 0 0.0 0.0 0.00 0.25 0.20 92 1018.1
20260506051025 11 0 0.0 0.0 0.00 0.33 0.20 93 1017.8
20260506050523 11 0 0.0 0.0 0.00 0.33 0.20 93 1017.8
20260506045027 11 0 0.0 0.0 0.00 0.48 0.20 92 1017.7
20260506044545 11 0 0.0 0.0 0.00 0.48 0.20 92 1017.7
20260506044026 11 0 0.0 0.0 0.00 0.48 0.20 91 1017.6
20260506043529 11 0 0.0 0.0 0.00 0.48 0.20 91 1017.5
20260506043038 11 0 0.0 0.0 0.00 0.48 0.20 90 1017.4
20260506042525 11 0 0.0 0.0 0.00 0.48 0.20 90 1017.4
20260506042024 11 0 0.0 0.0 0.00 0.48 0.20 90 1017.4
20260506041541 11 0 0.0 0.0 0.00 0.48 0.20 90 1017.1
20260506041024 12 0 0.0 0.0 0.00 0.48 0.20 90 1017.2
20260506040524 12 0 0.0 0.0 0.00 0.48 0.20 89 1017.0
20260506040056 12 0 0.0 0.0 0.00 0.48 0.20 89 1017.0
20260506035526 12 0 0.0 0.0 0.00 0.53 0.20 89 1016.8
20260506035027 12 0 0.0 1.6 0.00 0.53 0.20 88 1016.7
20260506034538 12 0 0.0 1.6 0.00 0.53 0.20 88 1016.7
20260506034025 12 0 0.0 1.6 0.00 0.53 0.20 88 1016.5
20260506033525 12 0 0.0 1.6 0.00 0.53 0.20 88 1016.5
20260506033039 12 0 0.0 1.6 0.00 0.53 0.20 88 1016.5
20260506032525 12 0 0.0 1.6 0.00 0.53 0.20 87 1016.4
20260506032025 12 0 0.0 1.6 0.00 0.53 0.20 87 1016.3
20260506031553 13 0 0.0 1.6 0.00 0.53 0.20 87 1016.3
20260506031027 13 0 0.0 1.6 0.00 0.53 0.20 86 1016.2
20260506030527 13 0 0.0 1.6 0.00 0.53 0.20 86 1016.0
20260506030038 13 0 0.0 3.2 0.00 0.53 0.20 85 1016.1
20260506025525 13 0 0.0 3.2 0.00 0.53 0.20 84 1015.9
20260506025025 13 122 0.0 3.2 0.00 0.53 0.20 83 1016.0
20260506024540 14 125 0.0 8.0 0.00 0.53 0.20 83 1015.9
20260506024025 14 0 1.6 8.0 0.00 0.53 0.20 82 1016.0
20260506023524 15 0 0.0 6.4 0.00 0.53 0.20 80 1016.0
20260506023038 15 133 0.0 6.4 0.00 0.53 0.20 79 1016.0
20260506022525 15 0 0.0 8.0 0.00 0.53 0.20 79 1016.0
20260506022025 16 147 1.6 8.0 0.00 0.53 0.20 78 1015.9
20260506021538 16 133 0.0 11.3 0.00 0.53 0.20 78 1015.8
20260506021022 16 139 1.6 12.9 0.00 0.53 0.20 77 1015.8
20260506020527 16 100 0.0 12.9 0.00 0.53 0.20 79 1015.6
20260506020039 16 95 3.2 9.7 0.00 0.53 0.20 78 1015.6
20260506015526 16 137 1.6 4.8 0.00 0.53 0.20 78 1015.6
20260506015026 16 139 1.6 11.3 0.00 0.53 0.20 78 1015.6
20260506014537 16 0 0.0 11.3 0.00 0.53 0.20 78 1015.6
20260506014025 16 120 1.6 11.3 0.00 0.53 0.20 77 1015.6
20260506013522 17 140 1.6 9.7 0.00 0.53 0.20 77 1015.7
20260506013037 17 131 0.0 9.7 0.00 0.53 0.20 77 1015.5
20260506012525 17 137 1.6 9.7 0.00 0.53 0.20 78 1015.6
20260506012022 17 0 0.0 4.8 0.00 0.53 0.20 77 1015.6
20260506011540 16 113 0.0 6.4 0.00 0.53 0.20 79 1015.6
20260506011023 16 129 1.6 6.4 0.00 0.53 0.20 79 1015.6
20260506010525 16 143 0.0 3.2 0.00 0.53 0.20 79 1015.6
20260506010043 16 153 0.0 6.4 0.00 0.53 0.20 80 1015.5
20260506005522 16 136 0.0 6.4 0.00 0.53 0.20 79 1015.5
20260506005025 16 135 0.0 4.8 0.00 0.53 0.20 81 1015.5
20260506004538 15 112 0.0 4.8 0.00 0.53 0.20 81 1015.4
20260506004029 15 127 0.0 6.4 0.00 0.53 0.20 81 1015.3
20260506003525 16 123 0.0 6.4 0.00 0.53 0.20 80 1015.4
20260506003041 16 134 0.0 6.4 0.00 0.53 0.20 79 1015.3
20260506002525 16 155 0.0 4.8 0.00 0.53 0.20 80 1015.4
20260506002025 16 0 0.0 4.8 0.00 0.53 0.20 80 1015.3
20260506001538 16 110 0.0 4.8 0.00 0.53 0.20 81 1015.3
20260506001025 16 0 1.6 4.8 0.00 0.53 0.20 80 1015.3
20260506000524 16 0 0.0 4.8 0.00 0.53 0.20 80 1015.2
20260506000037 16 125 0.0 6.4 0.00 0.53 0.20 81 1015.2
20260505235525 16 0 0.0 8.0 0.00 0.53 0.20 80 1015.3
20260505235025 16 0 0.0 8.0 0.00 0.53 0.20 80 1015.2
20260505234540 15 0 0.0 6.4 0.00 0.53 0.20 81 1015.3
20260505234025 15 124 0.0 11.3 0.00 0.53 0.20 82 1015.2
20260505233525 15 141 1.6 11.3 0.00 0.53 0.20 82 1015.2
20260505233042 15 169 1.6 11.3 0.00 0.53 0.20 82 1015.3
20260505232526 15 124 1.6 11.3 0.00 0.53 0.20 82 1015.3
20260505232025 15 133 1.6 9.7 0.00 0.53 0.20 81 1015.3
20260505231546 15 133 0.0 9.7 0.00 0.53 0.20 82 1015.3
20260505231025 15 144 1.6 8.0 0.00 0.53 0.20 81 1015.3
20260505230521 15 125 1.6 8.0 0.00 0.53 0.20 81 1015.3
20260505230038 15 131 1.6 8.0 0.00 0.53 0.20 81 1015.3
20260505225530 15 108 1.6 8.0 0.00 0.53 0.20 80 1015.3
20260505225026 16 0 0.0 8.0 0.00 0.53 0.20 80 1015.3
20260505224539 16 118 1.6 6.4 0.00 0.53 0.20 79 1015.3
20260505224026 16 122 0.0 6.4 0.00 0.53 0.20 80 1015.3
20260505223529 16 0 0.0 8.0 0.00 0.53 0.20 80 1015.3
20260505223041 16 0 0.0 8.0 0.00 0.53 0.20 80 1015.3
20260505222528 16 0 3.2 8.0 0.00 0.53 0.20 79 1015.4
20260505222025 16 126 1.6 8.0 0.00 0.53 0.20 80 1015.3
20260505221540 16 136 0.0 8.0 0.00 0.53 0.20 80 1015.3
20260505221024 16 123 1.6 6.4 0.00 0.53 0.20 78 1015.4
20260505220524 17 140 1.6 6.4 0.00 0.53 0.20 77 1015.5
20260505220042 17 128 0.0 4.8 0.00 0.53 0.20 77 1015.5
20260505215525 17 169 0.0 4.8 0.00 0.53 0.20 77 1015.4
20260505215026 17 94 0.0 4.8 0.00 0.53 0.20 77 1015.4
20260505214547 17 110 1.6 4.8 0.00 0.53 0.20 77 1015.4
20260505214027 17 134 0.0 8.0 0.00 0.53 0.20 77 1015.4
20260505213525 17 137 0.0 8.0 0.00 0.53 0.20 78 1015.5
20260505213036 17 0 0.0 6.4 0.00 0.53 0.20 78 1015.5
20260505212527 17 137 0.0 6.4 0.00 0.53 0.20 80 1015.6
20260505212026 16 147 0.0 4.8 0.00 0.53 0.20 80 1015.6
20260505211539 16 0 0.0 4.8 0.00 0.53 0.20 80 1015.7
20260505211025 16 0 0.0 4.8 0.00 0.53 0.20 81 1015.7
20260505210524 16 0 0.0 4.8 0.00 0.53 0.20 81 1015.7
20260505210039 16 0 0.0 4.8 0.00 0.53 0.20 81 1015.7
20260505205530 16 131 0.0 4.8 0.00 0.53 0.20 80 1015.6
20260505205027 16 0 0.0 3.2 0.00 0.53 0.20 81 1015.7
20260505204539 16 0 0.0 4.8 0.00 0.53 0.20 81 1015.7
20260505204029 16 130 0.0 4.8 0.00 0.53 0.20 81 1015.6
20260505203525 15 0 0.0 4.8 0.00 0.53 0.20 82 1015.7
20260505203038 15 124 0.0 4.8 0.00 0.53 0.20 82 1015.7
20260505202525 15 0 0.0 4.8 0.00 0.53 0.20 82 1015.8
20260505202025 15 0 0.0 4.8 0.00 0.53 0.20 82 1015.8
20260505201538 15 129 0.0 4.8 0.00 0.53 0.20 82 1015.7
20260505201025 15 114 0.0 8.0 0.00 0.53 0.20 82 1015.7
20260505200525 15 122 1.6 8.0 0.00 0.53 0.20 82 1015.9
20260505200042 15 126 1.6 4.8 0.00 0.53 0.20 82 1015.8
20260505195527 15 125 0.0 4.8 0.00 0.53 0.20 83 1015.8
20260505195025 15 0 0.0 6.4 0.00 0.53 0.20 82 1015.8
20260505194540 15 138 0.0 6.4 0.00 0.53 0.20 82 1015.8
20260505194022 15 122 0.0 4.8 0.00 0.53 0.20 83 1015.8
20260505193525 16 0 1.6 6.4 0.00 0.53 0.20 82 1015.8
20260505193039 16 146 1.6 6.4 0.00 0.53 0.20 80 1015.8
20260505192524 16 129 0.0 3.2 0.00 0.53 0.20 83 1015.8
20260505192022 16 136 0.0 3.2 0.00 0.53 0.20 83 1015.7
20260505191540 16 142 0.0 3.2 0.00 0.53 0.20 82 1015.7
20260505191028 15 0 0.0 3.2 0.00 0.53 0.20 82 1015.7
20260505190525 15 0 0.0 3.2 0.00 0.53 0.20 82 1015.7
20260505190040 15 138 0.0 4.8 0.00 0.53 0.20 81 1015.7
20260505185526 16 0 0.0 4.8 0.00 0.53 0.20 80 1015.7
20260505185027 16 0 0.0 4.8 0.00 0.53 0.20 81 1015.7
20260505184537 15 0 0.0 4.8 0.00 0.53 0.20 81 1015.7
20260505184025 15 0 0.0 1.6 0.00 0.53 0.20 80 1015.7
20260505183525 15 0 0.0 1.6 0.00 0.53 0.20 83 1015.8
20260505183040 15 122 0.0 1.6 0.00 0.53 0.20 82 1015.8
20260505182526 15 133 0.0 1.6 0.00 0.53 0.20 82 1015.8
20260505182025 15 0 0.0 1.6 0.00 0.53 0.20 81 1015.7
20260505181545 15 0 0.0 1.6 0.00 0.53 0.20 82 1015.7
20260505181024 15 0 0.0 1.6 0.00 0.53 0.20 83 1015.8
20260505180524 14 0 0.0 1.6 0.00 0.53 0.20 84 1015.7
20260505180042 14 0 0.0 1.6 0.00 0.53 0.20 83 1015.7
20260505175525 14 0 0.0 3.2 0.00 0.53 0.20 87 1015.6
20260505175025 14 0 0.0 3.2 0.00 0.53 0.20 88 1015.6
20260505174542 14 0 0.0 1.6 0.00 0.53 0.20 88 1015.4
20260505174027 14 0 0.0 1.6 0.00 0.53 0.20 88 1015.5
20260505173527 14 0 0.0 3.2 0.00 0.53 0.20 88 1015.4
20260505173038 13 142 0.0 3.2 0.00 0.53 0.20 88 1015.4
20260505172525 13 141 0.0 0.0 0.00 0.53 0.20 90 1015.4
20260505172026 13 0 0.0 1.6 0.00 0.53 0.20 90 1015.5
20260505171545 13 0 0.0 1.6 0.00 0.53 0.20 91 1015.4
20260505171027 13 0 0.0 1.6 0.00 0.53 0.20 92 1015.4
20260505170525 13 0 0.0 1.6 0.00 0.53 0.20 93 1015.4
20260505170044 13 0 0.0 1.6 0.00 0.53 0.20 93 1015.5
20260505165525 13 123 0.0 1.6 0.00 0.53 0.20 94 1015.4
20260505165025 13 0 0.0 0.0 0.00 0.53 0.20 95 1015.5
20260505164542 13 0 0.0 0.0 0.00 0.53 0.20 95 1015.4
20260505164025 13 0 0.0 0.0 0.00 0.53 0.20 95 1015.5
20260505163528 12 0 0.0 0.0 0.00 0.53 0.20 96 1015.5
20260505163050 12 0 0.0 0.0 0.00 0.53 0.20 96 1015.5
20260505162521 12 0 0.0 1.6 0.00 0.53 0.20 97 1015.4
20260505162025 12 0 0.0 1.6 0.00 0.53 0.20 97 1015.4
20260505161538 12 0 0.0 1.6 0.00 0.53 0.20 97 1015.4
20260505161029 12 0 0.0 1.6 0.00 0.53 0.20 96 1015.3
20260505160526 12 0 0.0 0.0 0.00 0.53 0.20 97 1015.3
20260505153041 11 0 0.0 0.0 0.00 0.53 0.20 97 1015.0
20260505152524 11 0 0.0 0.0 0.00 0.53 0.20 97 1014.9
20260505152027 11 0 0.0 0.0 0.00 0.53 0.20 97 1014.9
20260505151540 11 0 0.0 0.0 0.00 0.53 0.20 97 1014.9
20260505151026 11 0 0.0 0.0 0.00 0.53 0.20 97 1014.9
20260505150526 11 0 0.0 0.0 0.00 0.53 0.20 97 1014.9
20260505140525 11 0 0.0 1.6 0.00 0.53 0.20 96 1014.7
20260505130111 10 0 0.0 1.6 0.00 0.53 0.20 97 1014.3
20260505125022 10 0 0.0 3.2 0.00 0.53 0.20 97 1014.3